Stations météo

réclame
Mon MeteoGroup
Herstmonceux, Grande-Bretagne (3882): Température de l'air & dewpoint: 15.06.2018 11:00:00 - 21.06.2018 11:00:00 (BST)Herstmonceux, Grande-Bretagne (3882): Température de l'air -20cm & Température de l'air -100cm: 15.06.2018 11:00:00 - 21.06.2018 11:00:00 (BST)Herstmonceux, Grande-Bretagne (3882): Vitesse du vent & gusts: 15.06.2018 11:00:00 - 21.06.2018 11:00:00 (BST)Herstmonceux, Grande-Bretagne (3882): Direction du vent: 15.06.2018 11:00:00 - 21.06.2018 11:00:00 (BST)Herstmonceux, Grande-Bretagne (3882): reduced air pressure: 15.06.2018 11:00:00 - 21.06.2018 11:00:00 (BST)Herstmonceux, Grande-Bretagne (3882): visibility: 15.06.2018 11:00:00 - 21.06.2018 11:00:00 (BST)Herstmonceux, Grande-Bretagne (3882): Ensoleillement: 15.06.2018 11:00:00 - 21.06.2018 11:00:00 (BST)Herstmonceux, Grande-Bretagne (3882): Quantités de précipitations: 15.06.2018 11:00:00 - 21.06.2018 11:00:00 (BST)
Date & Time tt [°C] td [°C] tt -20cm [°C] tt -100cm [°C] ff [km/h] ff [knt] fx [km/h] fx [knt] dd ppp [hPa] vv [km] sd [min] rr [mm]
21.06.2018 11:00:00 16,0 5,7 - - 13 7 - - N 1024,9 35 60 0,0
21.06.2018 10:00:00 14,9 5,2 18,7 16,7 13 7 - - N 1024,5 30 42 0,0
21.06.2018 09:00:00 13,7 6,4 - - 15 8 - - N 1024,0 35 24 0,0
21.06.2018 08:00:00 12,6 6,6 - - 13 7 - - NNW 1023,7 35 6 0,0
21.06.2018 07:00:00 12,2 6,4 - - 15 8 - - N 1022,9 35 0 0,0
21.06.2018 06:00:00 11,4 6,0 - - 9 5 - - NNW 1022,5 40 0 0,0
21.06.2018 05:00:00 11,8 5,5 - - 11 6 - - N 1021,7 50 0 0,0
21.06.2018 04:00:00 13,3 5,4 - - 9 5 - - N 1021,3 40 0 0,0
21.06.2018 03:00:00 14,3 9,0 - - 11 6 - - N 1020,6 30 0 0,0
21.06.2018 02:00:00 14,2 13,7 - - 9 5 - - NW 1020,0 29 0 0,0
21.06.2018 01:00:00 14,5 14,3 - - 5 3 - - W 1019,8 0,3 - 0,0
21.06.2018 00:00:00 14,8 14,6 - - 5 3 - - W 1019,7 0,4 0 0,0
20.06.2018 23:00:00 14,7 14,5 - - 9 5 - - W 1019,8 5 0 0,0
20.06.2018 22:00:00 14,3 14,0 - - 8 4 - - W 1019,8 2,0 0 0,0
20.06.2018 21:00:00 14,8 14,0 - - 8 4 - - WSW 1019,4 8 18 0,0
20.06.2018 20:00:00 16,4 14,1 - - 9 5 - - WSW 1019,5 11 60 0,0
20.06.2018 19:00:00 17,5 14,4 - - 11 6 - - W 1019,6 20 60 0,0
20.06.2018 18:00:00 17,9 14,5 - - 11 6 - - W 1019,9 21 54 0,0
20.06.2018 17:00:00 18,7 15,1 - - 15 8 - - WSW 1020,0 40 60 0,0
20.06.2018 16:00:00 18,7 15,5 - - 11 6 - - W 1020,8 12 30 0,0
20.06.2018 15:00:00 16,8 14,6 - - 13 7 - - WSW 1021,3 35 0 0,0
20.06.2018 14:00:00 16,8 14,1 - - 13 7 - - W 1021,5 35 0 0,0
20.06.2018 13:00:00 16,7 14,4 - - 13 7 - - W 1021,7 40 0 0,0
20.06.2018 12:00:00 15,9 14,0 - - 13 7 - - W 1022,0 29 0 0,0
20.06.2018 11:00:00 15,7 14,0 - - 13 7 - - WSW 1022,1 28 0 0,0
20.06.2018 10:00:00 15,2 14,0 18,7 16,7 13 7 - - WSW 1022,3 30 0 0,0
20.06.2018 09:00:00 14,7 14,2 - - 9 5 - - WSW 1022,5 19 0 0,0
20.06.2018 08:00:00 14,5 14,4 - - 11 6 - - WSW 1022,4 7 0 0,0
20.06.2018 07:00:00 14,5 14,4 - - 9 5 - - WSW 1022,2 3,6 0 0,0
20.06.2018 06:00:00 14,4 14,4 - - 9 5 - - WSW 1022,2 2,6 0 0,0
20.06.2018 05:00:00 14,2 14,1 - - 8 4 - - WSW 1022,3 0,6 0 0,0
20.06.2018 04:00:00 13,9 13,8 - - 8 4 - - WSW 1022,4 0,4 0 0,0
20.06.2018 03:00:00 14,2 13,9 - - 9 5 - - SW 1022,7 0,7 0 0,0
20.06.2018 02:00:00 14,6 14,1 - - 8 4 - - WSW 1022,9 3,9 0 0,0
20.06.2018 01:00:00 15,1 14,4 - - 8 4 - - SW 1023,3 13 - 0,0
20.06.2018 00:00:00 15,2 14,5 - - 9 5 - - W 1023,5 18 0 0,0
19.06.2018 23:00:00 15,5 14,8 - - 8 4 - - WSW 1023,8 21 0 0,0
19.06.2018 22:00:00 15,6 14,7 - - 9 5 - - W 1023,8 18 0 0,0
19.06.2018 21:00:00 16,0 14,8 - - 13 7 - - W 1023,6 25 0 0,0
19.06.2018 20:00:00 16,5 15,0 - - 15 8 - - W 1023,7 29 6 0,0
19.06.2018 19:00:00 17,9 14,4 - - 13 7 - - W 1023,7 35 60 0,0
19.06.2018 18:00:00 19,7 15,4 - - 11 6 - - W 1023,7 26 54 0,0
19.06.2018 17:00:00 19,7 14,9 - - 13 7 - - WSW 1023,9 40 48 0,0
19.06.2018 16:00:00 20,5 15,5 - - 15 8 - - WSW 1024,0 40 42 0,0
19.06.2018 15:00:00 20,7 16,1 - - 13 7 - - WSW 1024,1 21 12 0,0
19.06.2018 14:00:00 20,1 15,7 - - 13 7 - - WSW 1024,2 26 0 0,0
19.06.2018 13:00:00 19,4 15,5 - - 11 6 - - WSW 1024,4 20 0 0,0
19.06.2018 12:00:00 18,4 15,6 - - 13 7 - - WSW 1024,5 29 0 0,0
19.06.2018 11:00:00 18,0 15,2 - - 11 6 - - WSW 1024,2 16 0 0,0
19.06.2018 10:00:00 17,4 15,3 18,5 16,7 9 5 - - WSW 1024,3 25 0 0,0
19.06.2018 09:00:00 17,3 15,5 - - 8 4 - - WSW 1024,2 21 0 0,0
19.06.2018 08:00:00 17,1 15,5 - - 5 3 - - WSW 1023,8 28 0 0,0
19.06.2018 07:00:00 16,1 15,2 - - 8 4 - - WSW 1023,5 16 0 0,0
19.06.2018 06:00:00 15,9 14,9 - - 9 5 - - WSW 1023,0 12 0 0,0
19.06.2018 05:00:00 16,0 15,0 - - 9 5 - - W 1022,6 13 0 0,0
19.06.2018 04:00:00 16,2 15,1 - - 11 6 - - W 1022,2 13 0 0,0
19.06.2018 03:00:00 15,9 15,1 - - 11 6 - - WSW 1022,1 9 0 0,0
19.06.2018 02:00:00 16,0 15,2 - - 11 6 - - W 1021,9 8 0 0,0
19.06.2018 01:00:00 15,8 15,2 - - 9 5 - - W 1021,9 7 - 0,0
19.06.2018 00:00:00 15,5 14,9 - - 11 6 - - WSW 1022,2 7 0 0,0
18.06.2018 23:00:00 15,2 14,7 - - 13 7 - - WSW 1022,5 6 0 0,0
18.06.2018 22:00:00 15,5 14,4 - - 11 6 - - W 1022,0 10 0 0,0
18.06.2018 21:00:00 15,6 14,2 - - 13 7 - - W 1021,8 12 0 0,0
18.06.2018 20:00:00 16,5 14,0 - - 11 6 - - W 1021,4 18 6 0,0
18.06.2018 19:00:00 17,2 12,6 - - 21 11 - - W 1021,1 17 48 0,0
18.06.2018 18:00:00 18,3 12,7 - - 15 8 - - WSW 1020,7 12 54 0,0
18.06.2018 17:00:00 17,9 12,0 - - 18 10 - - W 1021,1 23 60 0,0
18.06.2018 16:00:00 18,3 12,4 - - 18 10 - - WSW 1020,7 27 60 0,0
18.06.2018 15:00:00 18,8 13,0 - - 18 10 - - WSW 1020,7 27 54 0,0
18.06.2018 14:00:00 18,0 12,5 - - 18 10 - - WSW 1020,8 28 42 0,0
18.06.2018 13:00:00 17,3 12,7 - - 16 9 - - WSW 1020,7 20 18 0,0
18.06.2018 12:00:00 16,6 13,4 - - 13 7 - - WSW 1020,7 20 6 0,0
18.06.2018 11:00:00 16,4 12,3 - - 13 7 - - W 1020,3 35 0 0,0
18.06.2018 10:00:00 16,4 12,7 18,0 16,7 13 7 - - W 1020,1 30 0 0,0
18.06.2018 09:00:00 15,3 12,4 - - 11 6 - - W 1019,8 40 0 0,0
18.06.2018 08:00:00 14,7 14,0 - - 9 5 - - WSW 1019,1 8 0 0,0
18.06.2018 07:00:00 14,3 13,4 - - 11 6 - - WSW 1018,5 17 0 0,0
18.06.2018 06:00:00 14,7 14,6 - - 11 6 - - WSW 1018,3 14 0 0,0
18.06.2018 05:00:00 14,8 14,7 - - 9 5 - - WSW 1018,1 4,0 0 0,0
18.06.2018 04:00:00 14,4 14,4 - - 13 7 - - WSW 1017,8 1,8 0 0,0
18.06.2018 03:00:00 14,2 14,1 - - 9 5 - - WSW 1017,7 0,6 0 0,0
18.06.2018 02:00:00 14,1 14,0 - - 9 5 - - WSW 1017,8 0,9 0 0,0
18.06.2018 01:00:00 14,1 14,0 - - 9 5 - - WSW 1018,3 2,3 - 0,2
18.06.2018 00:00:00 14,1 14,0 - - 11 6 - - WSW 1018,4 1,2 0 0,0
17.06.2018 23:00:00 14,2 14,0 - - 13 7 - - WSW 1018,4 4,3 0 0,0
17.06.2018 22:00:00 14,0 13,8 - - 13 7 - - WSW 1018,4 4,4 0 0,0
17.06.2018 21:00:00 13,6 12,9 - - 13 7 - - SW 1018,3 7 0 0,0
17.06.2018 20:00:00 13,4 12,5 - - 13 7 - - SW 1018,4 5 0 0,0
17.06.2018 19:00:00 13,7 11,9 - - 16 9 - - SW 1018,5 6 0 0,0
17.06.2018 18:00:00 14,3 11,6 - - 13 7 - - WSW 1018,3 7 0 0,0
17.06.2018 17:00:00 15,0 11,4 - - 18 10 - - WSW 1018,5 16 0 0,0
17.06.2018 16:00:00 15,7 10,9 - - 18 10 - - WSW 1018,4 16 18 0,0
17.06.2018 15:00:00 16,5 11,4 - - 18 10 - - W 1018,3 21 0 0,0
17.06.2018 14:00:00 16,6 10,5 - - 21 11 - - WSW 1018,0 23 6 0,0
17.06.2018 13:00:00 16,1 11,3 - - 18 10 - - WSW 1017,9 19 0 0,0
17.06.2018 12:00:00 16,3 11,2 - - 16 9 - - WSW 1017,6 17 0 0,0
17.06.2018 11:00:00 16,7 11,5 - - 13 7 - - W 1017,4 22 18 0,0
17.06.2018 10:00:00 15,6 11,2 18,2 16,7 11 6 - - W 1017,7 29 18 0,0
17.06.2018 09:00:00 14,1 11,3 - - 8 4 - - W 1017,5 30 0 0,2
17.06.2018 08:00:00 13,5 10,7 - - 8 4 - - W 1017,4 15 0 0,0
17.06.2018 07:00:00 13,9 10,2 - - 8 4 - - W 1016,7 35 0 0,0
17.06.2018 06:00:00 13,1 9,4 - - 5 3 - - W 1016,1 40 0 0,0
17.06.2018 05:00:00 13,2 8,9 - - 5 3 - - W 1016,0 40 0 0,0
17.06.2018 04:00:00 13,7 9,4 - - 9 5 - - W 1016,0 35 0 0,0
17.06.2018 03:00:00 13,8 10,0 - - 8 4 - - W 1015,9 29 0 0,0
17.06.2018 02:00:00 13,6 10,6 - - 8 4 - - W 1015,8 22 0 0,0
17.06.2018 01:00:00 13,8 12,1 - - 5 3 - - WSW 1015,8 11 - 0,0
17.06.2018 00:00:00 13,1 11,5 - - 8 4 - - W 1015,6 10 0 0,0
16.06.2018 23:00:00 13,8 11,1 - - 15 8 - - WSW 1015,4 11 0 0,0
16.06.2018 22:00:00 13,6 11,8 - - 13 7 - - WSW 1015,3 10 0 0,0
16.06.2018 21:00:00 14,0 12,1 - - 15 8 - - WSW 1014,9 11 0 0,0
16.06.2018 20:00:00 14,3 12,2 - - 16 9 - - WSW 1015,1 14 12 0,0
16.06.2018 19:00:00 14,7 12,3 - - 18 10 46 25 WSW 1015,2 18 0 0,0
16.06.2018 18:00:00 14,6 12,4 - - 16 9 - - WSW 1015,2 25 0 0,0
16.06.2018 17:00:00 15,1 11,6 - - 18 10 - - WSW 1015,3 30 6 0,0
16.06.2018 16:00:00 16,6 11,1 - - 21 11 - - W 1015,4 25 12 0,0
16.06.2018 15:00:00 17,4 11,3 - - 21 11 - - W 1015,2 35 24 0,0
16.06.2018 14:00:00 16,7 9,9 - - 16 9 - - WSW 1015,5 40 0 0,0
16.06.2018 13:00:00 16,4 10,0 - - 15 8 - - WSW 1015,4 19 6 0,0
16.06.2018 12:00:00 16,8 8,9 - - 18 10 - - W 1015,6 23 48 0,0
16.06.2018 11:00:00 16,3 11,2 - - 15 8 - - WSW 1015,6 20 36 0,0
16.06.2018 10:00:00 15,6 11,7 18,4 16,7 15 8 - - WSW 1015,7 30 24 0,0
16.06.2018 09:00:00 14,4 11,7 - - 11 6 - - WSW 1015,7 16 0 0,0
16.06.2018 08:00:00 14,3 12,5 - - 8 4 - - WSW 1015,7 26 0 0,0
16.06.2018 07:00:00 13,6 12,8 - - 8 4 - - SW 1015,5 13 0 0,0
16.06.2018 06:00:00 13,0 12,8 - - 5 3 - - WSW 1015,5 10 0 0,0
16.06.2018 05:00:00 12,5 12,0 - - 4 2 - - W 1015,5 7 0 0,0
16.06.2018 04:00:00 12,2 11,4 - - 2 1 - - W 1015,7 11 0 0,0
16.06.2018 03:00:00 12,5 11,4 - - 2 1 - - WNW 1015,6 14 0 0,0
16.06.2018 02:00:00 12,4 11,3 - - 5 3 - - W 1016,1 14 0 0,0
16.06.2018 01:00:00 12,7 11,7 - - 8 4 - - W 1016,3 15 - 0,0
16.06.2018 00:00:00 12,5 11,7 - - 4 2 - - W 1016,2 11 0 0,0
15.06.2018 23:00:00 12,7 11,7 - - 5 3 - - W 1016,3 11 0 0,0
15.06.2018 22:00:00 13,5 11,7 - - 8 4 - - W 1016,5 15 0 0,0
15.06.2018 21:00:00 14,3 11,3 - - 9 5 - - W 1016,3 16 0 0,0
15.06.2018 20:00:00 15,2 10,8 - - 9 5 - - W 1016,2 18 0 0,0
15.06.2018 19:00:00 16,3 10,3 - - 11 6 - - WSW 1016,3 16 30 0,0
15.06.2018 18:00:00 18,3 10,8 - - 11 6 - - WSW 1016,3 16 54 0,0
15.06.2018 17:00:00 19,7 10,8 - - 11 6 - - W 1016,6 29 60 0,0
15.06.2018 16:00:00 20,3 11,0 - - 13 7 - - WSW 1016,6 22 60 0,0
15.06.2018 15:00:00 20,5 11,8 - - 13 7 - - WSW 1016,8 30 60 0,0
15.06.2018 14:00:00 20,4 11,2 - - 13 7 - - SW 1016,7 20 48 0,0
15.06.2018 13:00:00 20,4 12,0 - - 13 7 - - S 1016,7 17 60 0,0
15.06.2018 12:00:00 20,4 11,2 - - 13 7 - - S 1016,8 24 60 0,0
15.06.2018 11:00:00 21,2 11,7 - - 5 3 - - ESE 1016,5 35 54 0,0

tt = Température de l'air
td = dewpoint
tt -20cm = Température de l'air -20cm
tt -100cm = Température de l'air -100cm
ff = Vitesse du vent
fx = gusts
dd = Direction du vent
ppp = reduced air pressure
vv = visibility
sd = Ensoleillement
rr = Quantités de précipitations

stations d'obs. à proximité